Location: D�rnast
(49.6426°N, 11.9755°E)
Time: 07:26:14
(UTC+00:00)

N. Korean satellite - Pass Details

Date: 08 December 2021
Orbit: 446 x 491 km, 97.3° (Epoch: 18 January)

Event Time Altitude Azimuth Distance (km) Brightness Sun altitude
Rises 04:23:18 0° 15° (NNE) 2,466 10.2 -23.6°
Reaches altitude 10° 04:25:22 10° 20° (NNE) 1,586 9.3 -23.2°
Maximum altitude 04:28:44 60° 101° (E) 517 6.9 -22.7°
Drops below altitude 10° 04:32:03 10° 182° (S) 1,573 9.2 -22.2°
Sets 04:34:06 0° 186° (S) 2,442 10.2 -21.8°
